[[{"header":{"parameterUnit":"m.s-1","parameterCategory":1,"la1":30.2991,"la2":30.254,"lo1":-89.0895,"lo2":-89.0444,"dy":0.0017,"dx":0.0017,"nx":28,"ny":28,"refTime":"2025-08-15T21:00:00:Z","depth":0,"parameterNumber":2,"parameterNumberName":"U-component_of_WINDS"},"data":[0,0,0,0,0,0,0,0,0,0,0,0,0,0,0,0,0,0,0,0,0,0,0,0,0,0,0,0,0,0,0,0,0,0,0,0,0,0,0,0,0,0,0,0,0,0,0,0,0,0,0,0,0,0,0,0,0,0,1.2572,1.2572,0,1.2554,1.2554,1.2553,1.2505,1.2504,1.2503,1.2502,1.2484,1.2484,1.2485,0,0,0,0,0,0,0,0,0,0,0,0,0,1.2566,1.2566,1.2572,1.2572,1.2571,1.2554,1.2554,1.2553,1.2505,1.2504,1.2503,1.2501,1.2484,1.2484,1.2485,0,0,0,0,0,0,0,0,0,0,0,0,0,1.256,1.2566,1.2572,1.2545,1.2543,1.2554,1.2554,1.2553,1.2505,1.2504,1.2502,1.2501,1.2484,1.2484,1.2485,1.2521,0,0,1.2487,1.2488,0,0,0,0,0,0,0,0,1.256,1.256,1.2549,1.2547,1.2544,1.253,1.2545,1.2542,1.2506,1.252,1.2502,1.25,1.2501,1.25,1.25,1.252,1.2519,1.2487,1.2488,1.2488,1.2488,0,0,0,0,0,0,0,1.2561,1.2561,1.2565,1.2549,1.2546,1.2535,1.2532,1.2544,1.2519,1.2518,1.2515,1.2513,1.2499,1.2499,1.2499,1.2519,1.2487,1.2488,1.2488,1.2489,1.2569,1.2571,0,0,0,0,0,0,1.2565,1.2562,1.2565,1.2564,1.2549,1.2536,1.2533,1.2536,1.2519,1.2515,1.2515,1.2511,1.2499,1.2498,1.2498,1.254,1.2488,1.2489,1.2489,1.2568,1.257,1.2572,0,0,0,0,0,0,1.2565,1.2566,1.2566,1.2562,1.2561,1.2538,1.2542,1.2537,1.2537,1.2516,1.2511,1.252,1.2498,1.2497,1.2516,1.2539,1.2489,1.249,1.2566,1.2568,1.2571,1.2624,0,0,0,0,0,0,1.2565,1.2566,1.2579,1.2563,1.2561,1.2584,1.2543,1.2537,1.2538,1.2534,1.2519,1.2516,1.2496,1.2515,1.2517,1.2539,1.249,1.2563,1.2567,1.257,1.262,1.2628,1.2635,0,0,0,0,0,1.2565,1.2595,1.258,1.2581,1.2577,1.2585,1.2584,1.2562,1.254,1.2554,1.254,1.2516,1.2536,1.2517,1.2519,1.2542,1.2562,1.2566,1.257,1.2617,1.2626,1.2634,0,0,0,0,0,0,1.2614,1.2592,1.2575,1.26,1.2595,1.2577,1.2593,1.2572,1.2573,1.2568,1.254,1.2537,1.256,1.2553,1.2532,1.2576,1.2545,1.2549,1.258,1.2589,1.2597,1.2598,1.2491,0,0,0,0,0,1.2628,1.2636,1.2616,1.264,1.2638,1.2616,1.2619,1.2602,1.2595,1.2593,1.258,1.2575,1.258,1.2584,1.2588,1.2619,1.2615,1.2635,1.2642,1.2649,1.2653,1.267,1.2679,1.2584,1.2584,1.2584,0,0,1.2656,1.2645,1.2652,1.265,1.2644,1.2653,1.2615,1.2626,1.2633,1.2594,1.2611,1.2603,1.2595,1.262,1.2631,1.2615,1.2678,1.2653,1.2659,1.2659,1.2675,1.2684,1.2692,1.2587,1.2586,1.2586,0,0,1.2713,1.2705,1.2725,1.272,1.2711,1.2697,1.2702,1.2687,1.268,1.2696,1.2668,1.2676,1.2685,1.2681,1.2681,1.2738,1.2716,1.274,1.2778,1.2795,1.2803,1.2809,1.2831,1.2839,1.2744,1.2744,1.2744,0,1.275,1.2763,1.2738,1.2752,1.2752,1.2718,1.2738,1.2734,1.2727,1.2729,1.2711,1.2722,1.2715,1.2739,1.2753,1.2753,1.2759,1.2741,1.2804,1.281,1.2816,1.2836,1.2844,1.2747,1.2747,1.2746,1.2746,0,1.2809,1.2819,1.2836,1.283,1.2832,1.2849,1.2828,1.2833,1.2816,1.2804,1.2822,1.2812,1.2813,1.2818,1.2801,1.284,1.2831,1.2809,1.2777,1.2828,1.2847,1.2854,1.2751,1.275,1.2749,1.2749,0,0,1.2896,1.2877,1.2884,1.2882,1.287,1.2878,1.2893,1.2895,1.2901,1.2897,1.2911,1.292,1.29,1.2899,1.2882,1.2897,1.2944,1.2873,1.2872,1.2887,1.2988,1.3006,1.3015,1.293,1.2931,1.2932,1.2989,0,1.2951,1.2977,1.2955,1.2985,1.2995,1.2963,1.2977,1.2972,1.2961,1.2967,1.2955,1.2963,1.2935,1.2935,1.2948,1.2936,1.2964,1.2931,1.2942,1.2943,1.2946,1.3024,1.3042,1.3097,1.2996,1.2998,1.2998,0,1.3018,1.3018,1.3049,1.3037,1.304,1.3053,1.3054,1.306,1.3054,1.3045,1.3045,1.3024,1.304,1.3009,1.303,1.3008,1.3012,1.3007,1.3008,1.3009,1.2974,1.3028,1.3114,1.3122,1.3009,1.3008,1.3008,0,1.308,1.3088,1.3108,1.3107,1.3093,1.3103,1.3097,1.309,1.3093,1.3093,1.3095,1.3097,1.3099,1.3101,1.3082,1.3061,1.3107,1.3073,1.31,1.3101,1.3112,1.3111,1.32,1.3113,1.3113,1.3113,1.3112,0,1.3144,1.3164,1.3136,1.3148,1.3171,1.3146,1.3169,1.3161,1.3154,1.3165,1.3137,1.3148,1.3122,1.313,1.3115,1.3136,1.3136,1.313,1.3126,1.3133,1.3134,1.3135,1.3131,1.3115,1.3114,1.3114,1.3113,0,1.3217,1.3198,1.3218,1.3203,1.32,1.3218,1.3205,1.3217,1.3204,1.3218,1.322,1.3201,1.3209,1.319,1.3195,1.3185,1.3216,1.3205,1.3218,1.3215,1.3244,1.3242,1.3337,1.3348,1.3253,1.3254,1.3255,0,1.3259,1.3274,1.3261,1.3267,1.3263,1.3271,1.3274,1.3251,1.3255,1.325,1.3263,1.3269,1.3272,1.3288,1.3274,1.3279,1.3269,1.3302,1.3269,1.3276,1.327,1.327,1.3272,1.3309,1.331,1.3311,1.3312,0,1.3336,1.3327,1.3332,1.3334,1.3339,1.3339,1.3338,1.3344,1.3319,1.3326,1.3334,1.3337,1.3343,1.335,1.3352,1.3347,1.3326,1.3322,1.3329,1.3336,1.3344,1.3341,1.3237,1.332,1.3319,1.3318,1.3318,1.3318,1.3396,1.3408,1.3402,1.3409,1.3406,1.3405,1.3416,1.3405,1.3411,1.3415,1.34,1.3412,1.3407,1.3407,1.3404,1.3414,1.3399,1.3408,1.3411,1.3414,1.3419,1.3342,1.3414,1.3414,1.3413,1.3413,1.3413,0,1.3473,1.3467,1.3474,1.3473,1.3479,1.3459,1.3457,1.3463,1.3474,1.3471,1.3475,1.3486,1.3492,1.348,1.3485,1.3495,1.3486,1.3497,1.3497,1.3496,1.3431,1.3426,1.3505,1.3505,1.3505,1.3505,1.3505,1.3505,1.3514,1.3534,1.3524,1.3543,1.3537,1.3549,1.355,1.355,1.3547,1.356,1.3566,1.3558,1.3551,1.3556,1.3561,1.3557,1.3561,1.3576,1.357,1.3509,1.35,1.3492,1.3486,1.3577,1.3577,1.3633,1.3634,1.3634]},{"header":{"parameterUnit":"m.s-1","parameterCategory":1,"la1":30.2991,"la2":30.254,"lo1":-89.0895,"lo2":-89.0444,"dy":0.0017,"dx":0.0017,"nx":28,"ny":28,"refTime":"2025-08-15T21:00:00:Z","depth":0,"parameterNumber":3,"parameterNumberName":"V-component_of_WINDS"},"data":[0,0,0,0,0,0,0,0,0,0,0,0,0,0,0,0,0,0,0,0,0,0,0,0,0,0,0,0,0,0,0,0,0,0,0,0,0,0,0,0,0,0,0,0,0,0,0,0,0,0,0,0,0,0,0,0,0,0,-2.886,-2.886,0,-2.8885,-2.8885,-2.8885,-2.8879,-2.8878,-2.8878,-2.8877,-2.8901,-2.8902,-2.8903,0,0,0,0,0,0,0,0,0,0,0,0,0,-2.8805,-2.8806,-2.8859,-2.886,-2.886,-2.8885,-2.8885,-2.8885,-2.8879,-2.8878,-2.8878,-2.8877,-2.8901,-2.8902,-2.8903,0,0,0,0,0,0,0,0,0,0,0,0,0,-2.883,-2.8807,-2.8859,-2.886,-2.886,-2.8885,-2.8885,-2.8885,-2.8879,-2.8878,-2.8878,-2.8877,-2.89,-2.8902,-2.8904,-2.8928,0,0,-2.8909,-2.8909,0,0,0,0,0,0,0,0,-2.8828,-2.8832,-2.886,-2.886,-2.886,-2.8878,-2.8875,-2.89,-2.8879,-2.8872,-2.8877,-2.8876,-2.8894,-2.8896,-2.8902,-2.893,-2.8931,-2.8909,-2.891,-2.891,-2.8911,0,0,0,0,0,0,0,-2.8827,-2.883,-2.8869,-2.886,-2.886,-2.8859,-2.8861,-2.8879,-2.8887,-2.8872,-2.8872,-2.8875,-2.8894,-2.8901,-2.8903,-2.8931,-2.8909,-2.891,-2.8911,-2.8912,-2.8983,-2.8983,0,0,0,0,0,0,-2.8825,-2.8829,-2.8869,-2.887,-2.8842,-2.886,-2.8863,-2.8873,-2.8886,-2.8888,-2.8876,-2.8875,-2.8898,-2.8901,-2.8904,-2.8936,-2.891,-2.8912,-2.8913,-2.8982,-2.8983,-2.8984,0,0,0,0,0,0,-2.8824,-2.8828,-2.8868,-2.885,-2.8854,-2.8862,-2.8873,-2.8874,-2.8881,-2.8889,-2.889,-2.8881,-2.8898,-2.8901,-2.8923,-2.8936,-2.8913,-2.8914,-2.8981,-2.8982,-2.8983,-2.8999,0,0,0,0,0,0,-2.8822,-2.8828,-2.8837,-2.885,-2.8855,-2.8887,-2.8874,-2.8875,-2.8884,-2.8883,-2.8895,-2.8896,-2.8898,-2.8921,-2.8925,-2.8938,-2.8915,-2.8979,-2.8981,-2.8983,-2.8997,-2.9,-2.9003,0,0,0,0,0,-2.882,-2.884,-2.8838,-2.8843,-2.8867,-2.8887,-2.8891,-2.8893,-2.8885,-2.8895,-2.89,-2.8895,-2.8934,-2.8923,-2.8927,-2.8942,-2.8979,-2.8981,-2.8983,-2.8996,-2.9,-2.9003,0,0,0,0,0,0,-2.8827,-2.8841,-2.8839,-2.8863,-2.8875,-2.8886,-2.8899,-2.8897,-2.8909,-2.8908,-2.8909,-2.8912,-2.8935,-2.894,-2.8927,-2.8968,-2.8955,-2.8958,-2.8963,-2.8967,-2.897,-2.8969,-2.8917,0,0,0,0,0,-2.8832,-2.8847,-2.8858,-2.8878,-2.8884,-2.8891,-2.8899,-2.89,-2.8911,-2.8916,-2.8923,-2.8934,-2.8949,-2.8958,-2.8972,-2.8998,-2.9001,-2.901,-2.9013,-2.9015,-2.9018,-2.9034,-2.9039,-2.899,-2.899,-2.899,0,0,-2.8841,-2.885,-2.886,-2.888,-2.8889,-2.8905,-2.8894,-2.8911,-2.8924,-2.8918,-2.894,-2.8946,-2.8958,-2.8982,-2.8993,-2.8987,-2.9032,-2.9018,-2.902,-2.9021,-2.9037,-2.9041,-2.9045,-2.8992,-2.8992,-2.8991,0,0,-2.8866,-2.8874,-2.8893,-2.8903,-2.8917,-2.8921,-2.8926,-2.8939,-2.8943,-2.8965,-2.8962,-2.8976,-2.9001,-2.901,-2.9018,-2.905,-2.9047,-2.9054,-2.9071,-2.9087,-2.9091,-2.9094,-2.9107,-2.9112,-2.9057,-2.9057,-2.9057,0,-2.8875,-2.89,-2.8903,-2.8921,-2.8931,-2.8928,-2.8948,-2.8957,-2.8974,-2.8981,-2.8974,-2.9007,-2.9015,-2.9043,-2.9051,-2.9057,-2.9063,-2.9053,-2.909,-2.9093,-2.9097,-2.9109,-2.9114,-2.9058,-2.9058,-2.9058,-2.9058,0,-2.8912,-2.893,-2.8943,-2.8962,-2.8973,-2.8992,-2.8998,-2.9009,-2.9009,-2.9015,-2.9038,-2.9048,-2.9065,-2.9071,-2.9071,-2.91,-2.9096,-2.9089,-2.9077,-2.9102,-2.9114,-2.9119,-2.9059,-2.9059,-2.9059,-2.9059,0,0,-2.8941,-2.8963,-2.8968,-2.8978,-2.8994,-2.9008,-2.9027,-2.9045,-2.9055,-2.9067,-2.9085,-2.9107,-2.9102,-2.9111,-2.9112,-2.9126,-2.9153,-2.9118,-2.9118,-2.9125,-2.9187,-2.9193,-2.9199,-2.915,-2.9151,-2.9152,-2.9187,0,-2.8969,-2.9005,-2.9009,-2.904,-2.9057,-2.9056,-2.9073,-2.9085,-2.9091,-2.9106,-2.9112,-2.9129,-2.912,-2.9126,-2.914,-2.9147,-2.9165,-2.9144,-2.9167,-2.9168,-2.9166,-2.9205,-2.921,-2.9243,-2.9192,-2.9192,-2.9193,0,-2.9007,-2.9022,-2.9056,-2.9072,-2.908,-2.9095,-2.9113,-2.9127,-2.9141,-2.9145,-2.9157,-2.9156,-2.9177,-2.9164,-2.9193,-2.9178,-2.9188,-2.9193,-2.9194,-2.9197,-2.9183,-2.921,-2.9253,-2.9259,-2.92,-2.9199,-2.9199,0,-2.9027,-2.9056,-2.9081,-2.9089,-2.9108,-2.9119,-2.9128,-2.9141,-2.9152,-2.9168,-2.9175,-2.9192,-2.9202,-2.9215,-2.922,-2.921,-2.925,-2.9236,-2.9254,-2.9254,-2.9263,-2.9263,-2.931,-2.9267,-2.9267,-2.9267,-2.9267,0,-2.9059,-2.908,-2.9091,-2.9106,-2.913,-2.9135,-2.9158,-2.9166,-2.9179,-2.9196,-2.9195,-2.921,-2.9215,-2.9232,-2.9236,-2.9261,-2.9264,-2.9268,-2.9269,-2.9269,-2.9269,-2.9276,-2.9275,-2.9268,-2.9268,-2.9268,-2.9267,0,-2.9086,-2.9094,-2.9121,-2.9138,-2.9142,-2.916,-2.9174,-2.9189,-2.9195,-2.9217,-2.9222,-2.9232,-2.9252,-2.9259,-2.9282,-2.9285,-2.9314,-2.9312,-2.931,-2.9311,-2.9329,-2.9328,-2.9383,-2.9391,-2.9342,-2.9342,-2.9343,0,-2.9106,-2.9122,-2.9142,-2.9154,-2.9163,-2.9182,-2.9194,-2.92,-2.9213,-2.9232,-2.9245,-2.9265,-2.9282,-2.9314,-2.9323,-2.9342,-2.9341,-2.9359,-2.9344,-2.9344,-2.9344,-2.9343,-2.9346,-2.9362,-2.9363,-2.9363,-2.9364,0,-2.9141,-2.9145,-2.9163,-2.9184,-2.9199,-2.9215,-2.923,-2.924,-2.9248,-2.9262,-2.9284,-2.9297,-2.9322,-2.9343,-2.9362,-2.9371,-2.9369,-2.9369,-2.9374,-2.9375,-2.9374,-2.9376,-2.932,-2.9367,-2.9367,-2.9367,-2.9367,-2.9366,-2.9167,-2.9182,-2.9199,-2.922,-2.9233,-2.9248,-2.9264,-2.9273,-2.9291,-2.9314,-2.9316,-2.9339,-2.9355,-2.9381,-2.9391,-2.941,-2.9404,-2.9411,-2.9414,-2.9416,-2.9418,-2.937,-2.9413,-2.9413,-2.9413,-2.9412,-2.9412,0,-2.9204,-2.9215,-2.9235,-2.9257,-2.9274,-2.9272,-2.929,-2.9304,-2.9325,-2.934,-2.9357,-2.9383,-2.9404,-2.9415,-2.9436,-2.9449,-2.9449,-2.9454,-2.9454,-2.9457,-2.9421,-2.9415,-2.9454,-2.9454,-2.9454,-2.9454,-2.9454,-2.9454,-2.9225,-2.9253,-2.9259,-2.9293,-2.9304,-2.9328,-2.9339,-2.9353,-2.9366,-2.9395,-2.9413,-2.9421,-2.9435,-2.9457,-2.9476,-2.9479,-2.9487,-2.9494,-2.9496,-2.9463,-2.9459,-2.9455,-2.9449,-2.9495,-2.9495,-2.9531,-2.9531,-2.9531]}]]